FW0454 Weather Reports


Display with metric or nautical units.
time (UTC)temp
F
wind
direction
speed
MPH
gust
MPH
rain 1hr
in
rain 24hr
in
rain mn
in
humidity
%
barometer
mb
20180819015818 62 147 3.0 7.0 0.00 0.00 0.00 94 1015.8
20180819015326 62 190 3.0 7.0 0.00 0.00 0.00 93 1015.9
20180819014836 62 144 4.0 7.0 0.00 0.00 0.00 93 1016.0
20180819014323 62 158 2.0 6.0 0.00 0.00 0.00 93 1016.0
20180819013832 62 159 2.0 6.0 0.00 0.00 0.00 93 1016.1
20180819013323 62 174 2.0 6.0 0.00 0.00 0.00 93 1016.2
20180819012831 62 206 4.0 6.0 0.00 0.00 0.00 93 1016.2
20180819012319 62 178 3.0 6.0 0.00 0.00 0.00 93 1016.3
20180819011827 63 246 2.0 6.0 0.00 0.00 0.00 92 1016.4
20180819011318 63 155 2.0 10.0 0.00 0.00 0.00 92 1016.4
20180819010826 63 223 2.0 10.0 0.00 0.00 0.00 91 1016.6
20180819010333 63 182 4.0 7.0 0.00 0.00 0.00 91 1016.6
20180819005822 63 189 3.0 7.0 0.00 0.00 0.00 91 1016.6
20180819005331 63 223 3.0 7.0 0.00 0.00 0.00 90 1016.7
20180819004823 63 199 4.0 6.0 0.00 0.00 0.00 90 1016.5
20180819004331 63 160 2.0 9.0 0.00 0.00 0.00 90 1016.4
20180819003818 63 159 4.0 9.0 0.00 0.00 0.00 90 1016.5
20180819003327 63 201 3.0 8.0 0.00 0.00 0.00 90 1016.5
20180819002821 63 171 3.0 10.0 0.00 0.00 0.00 90 1016.6
20180819002329 63 153 4.0 8.0 0.00 0.00 0.00 90 1016.5
20180819001818 63 165 3.0 10.0 0.00 0.00 0.00 90 1016.4
20180819001327 63 165 3.0 6.0 0.00 0.00 0.00 90 1016.4
20180819000835 63 202 2.0 5.0 0.00 0.00 0.00 90 1016.5
20180819000320 63 211 2.0 6.0 0.00 0.00 0.00 89 1016.5
20180818235828 63 197 3.0 8.0 0.00 0.00 0.00 89 1016.6
20180818235319 63 167 3.0 12.0 0.00 0.00 0.00 89 1016.6
20180818234827 63 134 3.0 9.0 0.00 0.00 0.00 90 1016.7
20180818234320 63 181 3.0 8.0 0.00 0.00 0.00 90 1016.7
20180818233828 63 164 4.0 8.0 0.00 0.00 0.00 89 1016.8
20180818233336 63 215 3.0 8.0 0.00 0.00 0.00 89 1016.8
20180818232822 63 248 2.0 6.0 0.00 0.00 0.00 89 1016.8
20180818232331 63 161 3.0 7.0 0.00 0.00 0.00 90 1017.0
20180818231818 63 138 3.0 9.0 0.00 0.00 0.00 90 1017.2
20180818231326 63 227 3.0 9.0 0.00 0.00 0.00 89 1017.2
20180818230835 63 131 4.0 13.0 0.00 0.00 0.00 89 1017.1
20180818230321 63 212 3.0 9.0 0.00 0.00 0.00 89 1017.1
20180818225830 63 186 3.0 7.0 0.00 0.00 0.00 89 1017.2
20180818225322 63 184 3.0 8.0 0.00 0.00 0.00 89 1017.2
20180818224834 64 207 3.0 8.0 0.00 0.00 0.00 89 1017.1
20180818224324 64 189 3.0 11.0 0.00 0.00 0.00 89 1017.3
20180818223832 64 228 2.0 8.0 0.00 0.00 0.00 89 1017.3
20180818223323 64 134 3.0 8.0 0.00 0.00 0.00 89 1017.3
20180818222833 64 146 3.0 7.0 0.00 0.00 0.00 89 1017.4
20180818222323 64 193 3.0 8.0 0.00 0.00 0.00 89 1017.4
20180818221813 64 192 4.0 8.0 0.00 0.00 0.00 89 1017.4
20180818221332 64 192 3.0 7.0 0.00 0.00 0.00 89 1017.3
20180818220823 64 188 3.0 7.0 0.00 0.00 0.00 89 1017.3
20180818220331 64 200 2.0 9.0 0.00 0.00 0.00 89 1017.4
20180818215821 64 191 4.0 9.0 0.00 0.00 0.00 89 1017.4
20180818215332 64 193 4.0 12.0 0.00 0.00 0.00 89 1017.5
20180818214823 64 222 3.0 10.0 0.00 0.00 0.00 89 1017.5
20180818214336 64 188 3.0 10.0 0.00 0.00 0.00 89 1017.5
20180818213826 64 205 5.0 10.0 0.00 0.00 0.00 88 1017.5
20180818213321 64 196 4.0 9.0 0.00 0.00 0.00 88 1017.5
20180818212835 64 178 3.0 9.0 0.00 0.00 0.00 88 1017.6
20180818212324 64 190 3.0 8.0 0.00 0.00 0.00 87 1017.5
20180818211836 64 201 4.0 8.0 0.00 0.00 0.00 87 1017.6
20180818211327 64 190 3.0 11.0 0.00 0.00 0.00 88 1017.7
20180818210818 65 192 5.0 12.0 0.00 0.00 0.00 87 1017.6
20180818210323 65 196 5.0 12.0 0.00 0.00 0.00 87 1017.6
20180818205833 65 169 2.0 8.0 0.00 0.00 0.00 88 1017.6
20180818205323 65 184 3.0 8.0 0.00 0.00 0.00 88 1017.6
20180818204817 65 200 3.0 11.0 0.00 0.00 0.00 87 1017.6
20180818204327 65 193 4.0 8.0 0.00 0.00 0.00 87 1017.6
20180818203817 65 202 2.0 7.0 0.00 0.00 0.00 87 1017.6
20180818203328 65 252 3.0 7.0 0.00 0.00 0.00 87 1017.6
20180818202818 65 188 2.0 6.0 0.00 0.00 0.00 87 1017.7
20180818202327 65 215 3.0 10.0 0.00 0.00 0.00 87 1017.7
20180818201818 65 170 4.0 9.0 0.00 0.00 0.00 88 1017.7
20180818201329 65 155 3.0 6.0 0.00 0.00 0.00 87 1017.7
20180818200826 65 184 3.0 11.0 0.00 0.00 0.00 87 1017.7
20180818200334 65 183 5.0 11.0 0.00 0.00 0.00 87 1017.7
20180818195824 65 191 5.0 11.0 0.00 0.00 0.00 87 1017.6
20180818195314 65 152 4.0 9.0 0.00 0.00 0.00 86 1017.5
20180818194826 65 223 4.0 8.0 0.00 0.00 0.00 86 1017.5
20180818194317 65 171 4.0 10.0 0.00 0.00 0.00 86 1017.5
20180818193831 65 225 4.0 10.0 0.00 0.00 0.00 86 1017.5
20180818193320 65 171 4.0 16.0 0.00 0.00 0.00 85 1017.6
20180818192832 66 167 5.0 16.0 0.00 0.00 0.00 85 1017.7
20180818192325 66 219 5.0 11.0 0.00 0.00 0.00 84 1017.7
20180818191816 66 190 4.0 10.0 0.00 0.00 0.00 84 1017.6
20180818191330 66 188 4.0 10.0 0.00 0.00 0.00 83 1017.6
20180818190819 66 189 4.0 9.0 0.00 0.00 0.00 83 1017.6
20180818190325 66 174 3.0 8.0 0.00 0.00 0.00 82 1017.6
20180818185835 66 242 5.0 11.0 0.00 0.00 0.00 82 1017.6
20180818185325 67 190 4.0 11.0 0.00 0.00 0.00 82 1017.7
20180818184836 67 219 4.0 7.0 0.00 0.00 0.00 81 1017.6
20180818184329 67 236 3.0 6.0 0.00 0.00 0.00 81 1017.6
20180818183819 67 227 3.0 7.0 0.00 0.00 0.00 81 1017.6
20180818183329 67 202 3.0 14.0 0.00 0.00 0.00 80 1017.5
20180818182820 68 202 5.0 14.0 0.00 0.00 0.00 80 1017.6
20180818182333 68 236 2.0 9.0 0.00 0.00 0.00 79 1017.5
20180818181827 68 218 4.0 9.0 0.00 0.00 0.00 79 1017.6
20180818181317 68 181 3.0 12.0 0.00 0.00 0.00 78 1017.6
20180818180831 69 186 5.0 12.0 0.00 0.00 0.00 78 1017.6
20180818180322 69 217 3.0 8.0 0.00 0.00 0.00 78 1017.5
20180818175832 69 214 3.0 11.0 0.00 0.00 0.00 78 1017.5
20180818175323 69 327 5.0 11.0 0.00 0.00 0.00 77 1017.5
20180818174813 69 225 4.0 10.0 0.00 0.00 0.00 77 1017.6
20180818174325 69 186 4.0 10.0 0.00 0.00 0.00 77 1017.6
20180818173816 69 206 4.0 10.0 0.00 0.00 0.00 77 1017.6
20180818173328 69 236 5.0 11.0 0.00 0.00 0.00 77 1017.6
20180818172818 69 184 4.0 8.0 0.00 0.00 0.00 77 1017.6
20180818172329 69 154 5.0 7.0 0.00 0.00 0.00 76 1017.6
20180818171824 69 229 4.0 13.0 0.00 0.00 0.00 76 1017.6
20180818171315 69 178 5.0 13.0 0.00 0.00 0.00 76 1017.5
20180818170829 69 201 7.0 14.0 0.00 0.00 0.00 76 1017.6
20180818170317 69 243 7.0 14.0 0.00 0.00 0.00 76 1017.6
20180818165827 69 273 7.0 12.0 0.00 0.00 0.00 75 1017.6
20180818165317 69 211 5.0 15.0 0.00 0.00 0.00 75 1017.6
20180818164828 70 191 5.0 15.0 0.00 0.00 0.00 74 1017.5
20180818164318 70 212 5.0 11.0 0.00 0.00 0.00 74 1017.5
20180818163817 71 178 5.0 11.0 0.00 0.00 0.00 73 1017.4
20180818163330 71 253 4.0 10.0 0.00 0.00 0.00 71 1017.5
20180818162821 72 237 4.0 9.0 0.00 0.00 0.00 71 1017.4
20180818162333 72 202 5.0 11.0 0.00 0.00 0.00 71 1017.4
20180818161826 72 259 4.0 10.0 0.00 0.00 0.00 72 1017.5
20180818161336 71 204 3.0 12.0 0.00 0.00 0.00 72 1017.5
20180818160825 72 225 5.0 12.0 0.00 0.00 0.00 70 1017.5
20180818160315 72 218 5.0 12.0 0.00 0.00 0.00 71 1017.4
20180818155833 72 211 5.0 10.0 0.00 0.00 0.00 70 1017.4
20180818155323 72 253 4.0 10.0 0.00 0.00 0.00 70 1017.5
20180818154836 72 205 6.0 10.0 0.00 0.00 0.00 70 1017.5
20180818154327 71 245 6.0 11.0 0.00 0.00 0.00 71 1017.4
20180818153818 71 192 4.0 8.0 0.00 0.00 0.00 73 1017.4
20180818153329 70 242 5.0 10.0 0.00 0.00 0.00 72 1017.4
20180818152818 71 185 4.0 12.0 0.00 0.00 0.00 71 1017.4
20180818152328 71 195 4.0 12.0 0.00 0.00 0.00 71 1017.4
20180818151824 70 240 4.0 10.0 0.00 0.00 0.00 71 1017.4
20180818151333 70 212 5.0 10.0 0.00 0.00 0.00 71 1017.5
20180818150827 70 170 6.0 10.0 0.00 0.00 0.00 72 1017.4
20180818150319 69 207 5.0 10.0 0.00 0.00 0.00 72 1017.5
20180818145830 69 206 4.0 12.0 0.00 0.00 0.00 72 1017.5
20180818145322 70 177 5.0 12.0 0.00 0.00 0.00 71 1017.6
20180818144833 70 211 5.0 10.0 0.00 0.00 0.00 70 1017.6
20180818144324 71 234 5.0 10.0 0.00 0.00 0.00 68 1017.6
20180818143818 71 219 4.0 12.0 0.00 0.00 0.00 70 1017.6
20180818143331 71 210 4.0 12.0 0.00 0.00 0.00 69 1017.6
20180818142824 72 263 6.0 10.0 0.00 0.00 0.00 66 1017.7
20180818142335 73 165 6.0 14.0 0.00 0.00 0.00 66 1017.7
20180818141826 73 267 4.0 14.0 0.00 0.00 0.00 65 1017.7
20180818141317 73 200 6.0 12.0 0.00 0.00 0.00 65 1017.7
20180818140827 73 243 4.0 9.0 0.00 0.00 0.00 65 1017.7
20180818140334 73 153 5.0 12.0 0.00 0.00 0.00 65 1017.6
20180818135825 72 191 4.0 12.0 0.00 0.00 0.00 66 1017.6
20180818135320 72 242 5.0 11.0 0.00 0.00 0.00 66 1017.7
20180818134832 72 208 6.0 10.0 0.00 0.00 0.00 66 1017.7
20180818134322 72 255 5.0 11.0 0.00 0.00 0.00 66 1017.7
20180818133832 72 195 7.0 14.0 0.00 0.00 0.00 66 1017.7
20180818133325 72 222 4.0 12.0 0.00 0.00 0.00 67 1017.9
20180818132816 71 209 4.0 11.0 0.00 0.00 0.00 67 1018.0
20180818132327 71 193 4.0 8.0 0.00 0.00 0.00 68 1017.9
20180818131816 70 254 4.0 12.0 0.00 0.00 0.00 70 1017.9
20180818131334 69 180 6.0 12.0 0.00 0.00 0.00 70 1018.0
20180818130824 69 196 5.0 8.0 0.00 0.00 0.00 72 1018.0
20180818130314 68 183 4.0 11.0 0.00 0.00 0.00 72 1018.1
20180818125827 68 281 4.0 11.0 0.00 0.00 0.00 73 1018.2
20180818125336 67 217 4.0 9.0 0.00 0.00 0.00 74 1018.3
20180818124827 67 177 5.0 10.0 0.00 0.00 0.00 75 1018.3
20180818124318 67 184 5.0 13.0 0.00 0.00 0.00 74 1018.4
20180818123832 67 227 5.0 13.0 0.00 0.00 0.00 75 1018.3
20180818123327 66 199 4.0 9.0 0.00 0.00 0.00 75 1018.3
20180818122817 66 173 4.0 9.0 0.00 0.00 0.00 75 1018.4
20180818122328 66 286 4.0 9.0 0.00 0.00 0.00 76 1018.3
20180818121823 66 184 3.0 9.0 0.00 0.00 0.00 76 1018.4
20180818121335 66 349 2.0 9.0 0.00 0.00 0.00 76 1018.4
20180818120826 66 236 3.0 10.0 0.00 0.00 0.00 76 1018.5
20180818120333 66 282 4.0 10.0 0.00 0.00 0.00 76 1018.3
20180818115824 66 260 3.0 9.0 0.00 0.00 0.00 76 1018.2
20180818115318 66 238 4.0 9.0 0.00 0.00 0.00 76 1018.2
20180818114829 65 212 4.0 9.0 0.00 0.00 0.00 76 1018.1
20180818114320 65 318 4.0 13.0 0.00 0.00 0.00 77 1018.1
20180818113833 65 288 6.0 13.0 0.00 0.00 0.00 76 1018.0
20180818113328 65 10 4.0 10.0 0.00 0.00 0.00 77 1018.1
20180818112818 65 257 4.0 12.0 0.00 0.00 0.00 76 1018.1
20180818112331 65 240 3.0 12.0 0.00 0.00 0.00 76 1018.1
20180818111820 65 200 4.0 8.0 0.00 0.00 0.00 76 1018.1
20180818111331 65 258 4.0 10.0 0.00 0.00 0.00 77 1018.1
20180818110822 65 175 4.0 10.0 0.00 0.00 0.00 76 1018.1
20180818110329 65 162 4.0 9.0 0.00 0.00 0.00 76 1018.0
20180818105823 65 205 4.0 9.0 0.00 0.00 0.00 75 1018.0
20180818105314 65 223 4.0 11.0 0.00 0.00 0.00 75 1018.1
20180818104828 65 276 3.0 11.0 0.00 0.00 0.00 76 1018.0
20180818104319 65 192 5.0 10.0 0.00 0.00 0.00 76 1018.0
20180818103830 65 223 5.0 10.0 0.00 0.00 0.00 76 1018.0
20180818103323 64 213 3.0 11.0 0.00 0.00 0.00 78 1017.9
20180818102820 64 104 5.0 11.0 0.00 0.00 0.00 78 1017.9
20180818102330 64 288 5.0 11.0 0.00 0.00 0.00 78 1017.9
20180818101820 63 240 3.0 9.0 0.00 0.00 0.00 78 1017.8
20180818101333 63 196 4.0 9.0 0.00 0.00 0.00 78 1017.9
20180818100824 63 42 4.0 11.0 0.00 0.00 0.00 79 1017.7
20180818100332 64 207 5.0 11.0 0.00 0.00 0.00 79 1017.7
20180818095821 64 204 5.0 9.0 0.00 0.00 0.00 79 1017.8
20180818095334 64 155 5.0 11.0 0.00 0.00 0.00 79 1017.8
20180818094829 63 267 4.0 14.0 0.00 0.00 0.00 79 1017.9
20180818094319 63 241 6.0 14.0 0.00 0.00 0.00 79 1017.7
20180818093829 63 221 5.0 11.0 0.00 0.00 0.00 80 1017.8
20180818093322 63 269 3.0 11.0 0.00 0.00 0.00 79 1017.7
20180818092832 63 271 4.0 11.0 0.00 0.00 0.00 78 1017.7
20180818092322 64 215 4.0 10.0 0.00 0.00 0.00 78 1017.7
20180818091834 64 257 3.0 10.0 0.00 0.00 0.00 79 1017.7
20180818091325 64 215 5.0 13.0 0.00 0.00 0.00 79 1017.6
20180818090824 64 237 4.0 13.0 0.00 0.00 0.00 78 1017.6
20180818090334 64 215 4.0 10.0 0.00 0.00 0.00 78 1017.6
20180818085826 64 109 2.0 10.0 0.00 0.00 0.00 78 1017.5
20180818085316 64 232 4.0 9.0 0.00 0.00 0.00 77 1017.5
20180818084829 65 198 5.0 12.0 0.00 0.00 0.00 76 1017.5
20180818084323 65 223 5.0 12.0 0.00 0.00 0.00 76 1017.5
20180818083814 65 230 5.0 10.0 0.00 0.00 0.00 77 1017.4
20180818083327 64 248 5.0 9.0 0.00 0.00 0.00 76 1017.3
20180818082821 64 202 4.0 12.0 0.00 0.00 0.00 77 1017.4
20180818082332 64 262 5.0 12.0 0.00 0.00 0.00 76 1017.4
20180818081822 63 234 4.0 10.0 0.00 0.00 0.00 77 1017.3
20180818081332 63 234 4.0 10.0 0.00 0.00 0.00 76 1017.3
20180818080824 64 180 4.0 11.0 0.00 0.00 0.00 76 1017.3
20180818080332 63 234 5.0 12.0 0.00 0.00 0.00 78 1017.2
20180818075822 63 184 6.0 12.0 0.00 0.00 0.00 78 1017.2
20180818075330 63 231 5.0 11.0 0.00 0.00 0.00 81 1017.2
20180818074818 62 259 5.0 12.0 0.00 0.00 0.00 80 1017.2
20180818074330 62 123 4.0 12.0 0.00 0.00 0.00 82 1017.0
20180818073818 62 177 3.0 11.0 0.00 0.00 0.00 83 1017.1
20180818073327 62 329 4.0 13.0 0.00 0.00 0.00 84 1017.0
20180818072834 61 342 4.0 13.0 0.00 0.00 0.00 84 1016.9
20180818072323 61 206 4.0 9.0 0.00 0.00 0.00 85 1016.9
20180818071830 61 167 4.0 8.0 0.00 0.00 0.00 87 1017.0
20180818071319 60 270 4.0 11.0 0.00 0.00 0.00 86 1017.1
20180818070826 60 21 4.0 10.0 0.00 0.00 0.00 87 1017.2
20180818070331 60 227 4.0 12.0 0.00 0.00 0.00 88 1017.0
20180818065825 60 219 2.0 11.0 0.00 0.00 0.00 88 1017.0
20180818065333 60 218 5.0 11.0 0.00 0.00 0.00 87 1016.9
20180818064821 60 273 4.0 9.0 0.00 0.00 0.00 87 1016.8
20180818064333 60 180 4.0 10.0 0.00 0.00 0.00 88 1016.8
20180818063821 60 244 4.0 14.0 0.00 0.00 0.00 88 1016.8
20180818063330 60 242 3.0 14.0 0.00 0.00 0.00 89 1016.8
20180818062818 60 222 5.0 14.0 0.00 0.00 0.00 90 1016.8
20180818062325 59 200 6.0 10.0 0.00 0.00 0.00 90 1016.8
20180818061835 59 234 4.0 9.0 0.00 0.00 0.00 90 1016.7
20180818061327 59 186 5.0 9.0 0.00 0.00 0.00 90 1016.7
20180818060817 59 275 4.0 9.0 0.00 0.00 0.00 90 1016.7
20180818060322 59 236 4.0 9.0 0.00 0.00 0.00 90 1016.7
20180818055829 59 233 5.0 8.0 0.00 0.00 0.00 90 1016.6
20180818055318 59 215 4.0 11.0 0.00 0.00 0.00 90 1016.7
20180818054828 59 211 6.0 11.0 0.00 0.00 0.00 90 1016.7
20180818054336 59 189 6.0 10.0 0.00 0.00 0.00 91 1016.8
20180818053825 59 208 4.0 9.0 0.00 0.00 0.00 91 1016.8
20180818053334 59 202 4.0 10.0 0.00 0.00 0.00 91 1016.8
20180818052826 58 176 5.0 10.0 0.00 0.00 0.00 91 1016.7
20180818052331 58 171 3.0 9.0 0.00 0.00 0.00 91 1016.7
20180818051819 58 218 5.0 10.0 0.00 0.00 0.00 91 1016.7
20180818051327 58 236 4.0 10.0 0.00 0.00 0.00 91 1016.6
20180818050817 58 205 5.0 13.0 0.00 0.00 0.00 90 1016.5
20180818050325 58 289 5.0 13.0 0.00 0.00 0.00 90 1016.4
20180818045815 58 151 3.0 8.0 0.00 0.00 0.00 90 1016.4
20180818045326 58 196 4.0 9.0 0.00 0.00 0.00 90 1016.5
20180818044815 58 248 4.0 8.0 0.00 0.00 0.00 90 1016.4
20180818044329 58 229 4.0 8.0 0.00 0.00 0.00 90 1016.4
20180818043816 58 286 4.0 9.0 0.00 0.00 0.00 90 1016.4
20180818043326 58 245 4.0 9.0 0.00 0.00 0.00 90 1016.4
20180818042835 58 219 4.0 11.0 0.00 0.00 0.00 90 1016.5
20180818042323 58 237 4.0 7.0 0.00 0.00 0.00 90 1016.4
20180818041831 58 261 3.0 8.0 0.00 0.00 0.00 90 1016.5
20180818041319 58 249 3.0 8.0 0.00 0.00 0.00 90 1016.4
20180818040826 58 244 4.0 8.0 0.00 0.00 0.00 90 1016.4
20180818040331 58 265 3.0 8.0 0.00 0.00 0.00 90 1016.3
20180818035824 58 212 2.0 7.0 0.00 0.00 0.00 90 1016.4
20180818035332 58 217 2.0 5.0 0.00 0.00 0.00 90 1016.5
20180818034819 58 186 3.0 5.0 0.00 0.00 0.00 90 1016.4
20180818034327 58 214 2.0 6.0 0.00 0.00 0.00 90 1016.4
20180818033816 58 219 3.0 11.0 0.00 0.00 0.00 90 1016.4
20180818033323 58 240 4.0 11.0 0.00 0.00 0.00 90 1016.4
20180818032830 58 207 2.0 9.0 0.00 0.00 0.00 90 1016.4
20180818032322 58 235 4.0 9.0 0.00 0.00 0.00 90 1016.5
20180818031830 58 221 3.0 8.0 0.00 0.00 0.00 90 1016.5
20180818031322 58 210 3.0 6.0 0.00 0.00 0.00 90 1016.5
20180818030830 58 171 3.0 6.0 0.00 0.00 0.00 90 1016.5
20180818030334 58 199 3.0 9.0 0.00 0.00 0.00 90 1016.5
20180818025821 58 237 4.0 8.0 0.00 0.00 0.00 90 1016.6
20180818025329 58 248 2.0 8.0 0.00 0.00 0.00 90 1016.6
20180818024836 58 237 3.0 8.0 0.00 0.00 0.00 90 1016.7
20180818024325 58 218 4.0 7.0 0.00 0.00 0.00 90 1016.7
20180818023832 58 196 3.0 8.0 0.00 0.00 0.00 90 1016.7
20180818023320 58 209 4.0 8.0 0.00 0.00 0.00 90 1016.7
20180818022829 58 234 4.0 7.0 0.00 0.00 0.00 90 1016.8
20180818022320 58 344 4.0 7.0 0.00 0.00 0.00 90 1016.8
20180818021830 58 262 4.0 10.0 0.00 0.00 0.00 91 1016.7
20180818021319 58 197 4.0 10.0 0.00 0.00 0.00 91 1016.7
20180818020828 58 221 3.0 7.0 0.00 0.00 0.00 90 1016.7
20180818020331 58 236 5.0 9.0 0.00 0.00 0.00 90 1016.6